Updated20/04/2019 21:50 
 

GeoURL
free counters
Scottish Weather Network UK Weather Network Cumulus Top Weather Sites

Peebles Weather - UV Forecast

Raw Data, Raw Data Expanded

Ignore low humidity and Dew Point values. Something wrong with the sensor.
Daytime temperatures are in direct sunlight so may be higher than official air temperature values.
As with any other website, we log your IP address and browser type in the server logs for diagnostic reasons. Cookies are used to record visit time and gauges preferences. No personal information is stored or processed.

All times are in local time (GMT, or BST in summer) unless specified.

2019/04/20 20:20 EGPH 202020Z VRB02KT CAVOK 14/09 Q1027
11.8°C 0.0 mm 0.0 mm 0.0 mm 0.4 mph 2.2 mph 1009.6 hPa 76% X-Ray Solar Flare Level
Planetary K-Index
Planetary K-Index History
Station Warn Rain Snow Flood Wind Ltng Heat Cold Glob Moon Temp Rain 1h Rain Sat Rain 24h Wind 10m Gust Pressure Hum Proton Levels

0.259 m Waning Gibbous Cool F0-S F: A: Kp:0 SSN:0

UV Index Forecast

 

Sat Sun Mon Tue Wed Thu
UV Index UV Index UV Index UV Index UV Index UV Index
4.2 4.2 4.2 4.0 3.6 3.6
 Medium   Medium   Medium   Medium   Medium   Medium 

UV forecast courtesy of and Copyright © KNMI/ESA (http://www.temis.nl/). Used with permission.

UV Index Legend
UV Index Scale

 

XHTML 1.1 | CSS